Location: Larkspur
(54.4391°N, 113.7691°W)
Time: 13:34:04
(UTC+00:00)

Oscar 19 - Pass Details

Date: 08 December 2023
Orbit: 771 x 789 km, 98.9° (Epoch: 01 March)

Event Time Altitude Azimuth Distance (km) Brightness Sun altitude
Rises 12:01:06 0° 19° (NNE) 3,276 14.1 -30.7°
Reaches altitude 10° 12:03:31 10° 26° (NNE) 2,346 13.4 -30.3°
Maximum altitude 12:08:30 46° 99° (E) 1,043 11.6 -29.6°
Drops below altitude 10° 12:13:28 10° 173° (S) 2,341 13.2 -28.9°
Sets 12:15:52 0° 179° (S) 3,268 13.9 -28.5°
